Home   Weather   Midway   Past weeks
Flag for US Minor Outlying Islands

Past Weather in Midway, US Minor Outlying Islands — Yesterday and Last 2 Weeks

Currently: 75 °F. Mostly cloudy. (Weather station: Lihue Airport, US Minor Outlying Islands). See more current weather

Past Weather in Midway — Graph

°F

Midway Temperature Yesterday

Maximum temperature yesterday: 80 °F (at 8:53 am)
Minimum temperature yesterday: 75 °F (at 12:29 am)
Average temperature yesterday: 76 °F

High & Low Weather Summary for the Past Weeks

 TemperatureHumidityPressure
High84 °F (May 15, 1:53 pm)97% (May 16, 3:53 am)30.16 "Hg (May 16, 3:53 am)
Low68 °F (May 17, 12:53 am)59% (May 15, 1:53 pm)29.81 "Hg (May 16, 3:53 am)
Average75 °F82%30.02 "Hg
* Reported May 13 11:15 pm — May 28 11:53 pm, Midway. Weather by CustomWeather, © 2024

Note: Actual official high and low records may vary slightly from our data, if they occured in-between our weather recording intervals... More about our weather records

Midway Weather History for the Previous 24 Hours

Scroll right to see more
 ConditionsComfort  
Time TempWeatherWind HumidityBarometerVisibility
11:53 pm
Tue, May 28
75 °FMostly cloudy.17 mph79%30.08 "Hg10 mi
10:53 pm75 °FPartly cloudy.17 mph79%30.09 "Hg10 mi
10:01 pm75 °FPassing clouds.14 mph82%30.11 "Hg10 mi
8:53 pm76 °FMostly cloudy.16 mph80%30.09 "Hg10 mi
7:53 pm75 °FPassing clouds.15 mph82%30.10 "Hg10 mi
7:15 pm75 °FOvercast.16 mph85%30.11 "Hg10 mi
5:53 pm76 °FBroken clouds.14 mph80%30.08 "Hg10 mi
4:53 pm77 °FBroken clouds.14 mph74%30.07 "Hg10 mi
3:53 pm77 °FMore clouds than sun.17 mph79%30.06 "Hg10 mi
3:00 pm79 °FPartly sunny.16 mph74%30.06 "Hg10 mi
1:53 pm79 °FMostly cloudy.15 mph72%30.05 "Hg10 mi
12:53 pm79 °FMostly cloudy.16 mph72%30.06 "Hg10 mi
12:15 pm80 °FBroken clouds.16 mph71%30.07 "Hg10 mi
11:53 am79 °FScattered clouds.16 mph74%30.06 "Hg10 mi
10:53 am79 °FPartly sunny.15 mph74%30.07 "Hg10 mi
9:53 am80 °FBroken clouds.16 mph71%30.07 "Hg10 mi
8:53 am80 °FBroken clouds.17 mph74%30.07 "Hg10 mi
7:53 am77 °FPartly sunny.16 mph77%30.07 "Hg10 mi
6:53 am76 °FPassing clouds.15 mph80%30.06 "Hg10 mi
6:38 am75 °FPartly sunny.15 mph82%30.07 "Hg10 mi
6:13 am75 °FLight rain. Cloudy.14 mph82%30.07 "Hg7 mi
5:53 am75 °FBroken clouds.15 mph82%30.05 "Hg10 mi
5:26 am75 °FBroken clouds.13 mph82%30.05 "Hg10 mi
5:05 am75 °FBroken clouds.13 mph79%30.05 "Hg10 mi
4:53 am75 °FMostly cloudy.14 mph79%30.03 "Hg10 mi
4:15 am75 °FPartly cloudy.15 mph82%30.02 "Hg10 mi
3:53 am75 °FPartly cloudy.15 mph79%30.02 "Hg10 mi
3:25 am75 °FMostly cloudy.14 mph82%30.03 "Hg10 mi
2:53 am75 °FMostly cloudy.14 mph79%30.02 "Hg10 mi
1:53 am75 °FOvercast.15 mph79%30.02 "Hg10 mi
Weather by CustomWeather, © 2024

See weather overview